Voltar ao catálogo

STARLINK-37338

AtivoComunicaçõesSSO
NORAD 68739·PAYLOAD·🇺🇸 United States

Lançado Apr 15, 2026 de Vandenberg Space Force Base

Loading…

Próximas Passagens (próximas 24 horas)

TLE

AtualizadoSource: CelesTrak SupGP

Época: Sep 15, 2026, 03:51 UTC

1 68739C 26082M   26258.16090278 -.00021074  00000+0 -65396-3 0  2582
2 68739  97.2848 120.3708 0002524  94.8306   0.9547 15.33458385    18

Acompanhe STARLINK-37338 em tempo real com AllMySat

Download on the App Store